Orange, MA

3:42 AM EDT on September 21, 2019 (GMT -0400)
Orange Municipal

Weather History for KORE - August, 2019

Change the Weather History Date:

Sunday, August 18, 2019

  Actual Average Record
Temperature  
Mean Temperature 77 °F -  
Max Temperature 88 °F 78 °F 91 °F (2002)
Min Temperature 66 °F 55 °F 50 °F (2005)
Cooling Degree Days 12    
Growing Degree Days 27 (Base 50)    
Moisture  
Dew Point 67 °F    
Average Humidity 85    
Maximum Humidity 97    
Minimum Humidity 51    
Precipitation  
Precipitation 0.01 in - - ()
Sea Level Pressure  
Sea Level Pressure 30.02 in    
Wind  
Wind Speed 2 mph (NW)    
Max Wind Speed 9 mph    
Max Gust Speed -    
Visibility 6 miles    
Events Fog , Rain    
Averages and records for this station are not official NWS values.
T = Trace of Precipitation, MM = Missing Value Source: NWS Daily Summary

Daily Weather History Graph

Daily Weather History Graph

Search for Another Location

Airport or City:

Astronomy

Aug. 18, 2019 Rise Set
Actual Time 5:58 AM EDT 7:46 PM EDT
Civil Twilight 5:28 AM EDT 8:16 PM EDT
Nautical Twilight 4:51 AM EDT 8:53 PM EDT
Astronomical Twilight 4:12 AM EDT 9:32 PM EDT
Moon 9:36 PM EDT (8/18) 8:43 AM EDT (8/18)
Length of Visible Light 14h 47m
Length of Day
13h 47m
Waning Gibbous, 91% of the Moon is Illuminated
Aug 18
Waning Gibbous
Aug 23
Last Quarter
Aug 30
New
Sep 5
First Quarter
Sep 14
Full

Hourly Weather History & Observations

Time (EDT) Temp. Heat Index Dew Point Humidity Pressure Visibility Wind Dir Wind Speed Gust Speed Precip Events Conditions
12:01 AM 68.0 °F - 66.0 °F 93% 30.03 in 10.0 mi SE 4.6 mph - N/A   Scattered Clouds
12:21 AM 69.1 °F - 66.0 °F 90% 30.03 in 10.0 mi Calm Calm - N/A   Mostly Cloudy
12:52 AM 68.0 °F - 66.0 °F 93% 30.03 in 6.0 mi Calm Calm - N/A   Overcast
1:04 AM 68.0 °F - 66.0 °F 93% 30.03 in 10.0 mi Calm Calm - N/A   Overcast
1:35 AM 68.0 °F - 66.0 °F 93% 30.03 in 10.0 mi Calm Calm - N/A   Scattered Clouds
1:43 AM 68.0 °F - 66.0 °F 93% 30.03 in 10.0 mi Calm Calm - N/A   Mostly Cloudy
1:52 AM 68.0 °F - 66.0 °F 93% 30.02 in 2.0 mi NE 3.5 mph - N/A   Mostly Cloudy
1:54 AM 68.0 °F - 66.0 °F 93% 30.03 in 1.2 mi NNE 3.5 mph - N/A   Mostly Cloudy
1:58 AM 68.0 °F - 66.0 °F 93% 30.03 in 0.8 mi Calm Calm - N/A   Mist
2:03 AM 68.0 °F - 66.0 °F 93% 30.03 in 1.2 mi NW 5.8 mph - N/A   Overcast
2:06 AM 66.9 °F - 64.9 °F 93% 30.03 in 2.0 mi NW 5.8 mph - N/A   Overcast
2:13 AM 66.9 °F - 66.0 °F 97% 30.03 in 7.0 mi NNW 5.8 mph - N/A   Overcast
2:52 AM 66.9 °F - 64.9 °F 93% 30.02 in 10.0 mi NW 5.8 mph - N/A   Overcast
3:52 AM 66.9 °F - 64.0 °F 90% 30.01 in 7.0 mi Calm Calm - N/A   Overcast
4:09 AM 66.9 °F - 64.9 °F 93% 30.02 in 1.8 mi Calm Calm - N/A   Overcast
4:15 AM 66.9 °F - 64.9 °F 93% 30.02 in 1.0 mi Calm Calm - N/A   Overcast
4:26 AM 66.0 °F - 64.9 °F 96% 30.02 in 0.8 mi WNW 3.5 mph - N/A   Overcast
4:52 AM 66.0 °F - 64.0 °F 93% 30.02 in 0.8 mi Calm Calm - N/A   Mist
5:12 AM 66.0 °F - 64.0 °F 93% 30.02 in 1.2 mi Calm Calm - N/A   Overcast
5:17 AM 66.0 °F - 64.9 °F 96% 30.02 in 0.8 mi Calm Calm - N/A   Mist
5:32 AM 66.0 °F - 64.0 °F 93% 30.02 in 1.2 mi Calm Calm - N/A   Overcast
5:48 AM 66.2 °F - 64.4 °F 94% 30.02 in 2.0 mi Calm Calm - N/A   Overcast
5:52 AM 66.0 °F - 64.0 °F 93% 30.02 in 3.0 mi Calm Calm - N/A   Overcast
6:06 AM 66.0 °F - 64.0 °F 93% 30.03 in 2.0 mi Calm Calm - N/A   Overcast
6:14 AM 66.0 °F - 64.0 °F 93% 30.03 in 1.2 mi NNW 3.5 mph - N/A   Overcast
6:16 AM 66.0 °F - 64.0 °F 93% 30.02 in 0.8 mi NNW 3.5 mph - N/A   Overcast
6:52 AM 66.0 °F - 64.0 °F 93% 30.03 in 0.5 mi Calm Calm - N/A Fog Fog
7:38 AM 66.0 °F - 64.9 °F 96% 30.05 in 1.2 mi Calm Calm - N/A   Overcast
7:52 AM 66.9 °F - 64.9 °F 93% 30.05 in 1.8 mi Calm Calm - N/A   Overcast
7:56 AM 66.9 °F - 64.9 °F 93% 30.06 in 3.0 mi Calm Calm - N/A   Overcast
8:44 AM 69.1 °F - 64.9 °F 87% 30.06 in 10.0 mi Calm Calm - N/A   Overcast
8:52 AM 69.1 °F - 64.9 °F 87% 30.06 in 10.0 mi Calm Calm - N/A   Overcast
9:52 AM 71.1 °F - 66.0 °F 84% 30.06 in 10.0 mi NE 3.5 mph - N/A   Overcast
10:52 AM 75.0 °F - 66.9 °F 76% 30.05 in 10.0 mi Variable 3.5 mph - N/A   Mostly Cloudy
11:08 AM 75.0 °F - 66.9 °F 76% 30.05 in 10.0 mi Calm Calm - N/A   Partly Cloudy
11:52 AM 77.0 °F - 66.9 °F 71% 30.04 in 10.0 mi Calm Calm - N/A   Partly Cloudy
12:50 PM 82.4 °F 86.3 °F 69.8 °F 66% 30.02 in 10.0 mi East 4.6 mph - N/A   Mostly Cloudy
12:52 PM 81.0 °F 84.1 °F 69.1 °F 67% 30.01 in 10.0 mi Variable 3.5 mph - N/A   Mostly Cloudy
1:08 PM 82.9 °F 86.5 °F 69.1 °F 63% 30.01 in 10.0 mi North 5.8 mph - N/A   Scattered Clouds
1:52 PM 84.0 °F 87.8 °F 69.1 °F 61% 30.01 in 10.0 mi WSW 3.5 mph - N/A   Scattered Clouds
2:52 PM 88.0 °F 91.4 °F 68.0 °F 51% 29.99 in 10.0 mi West 6.9 mph - N/A   Scattered Clouds
3:52 PM 87.1 °F 90.6 °F 68.0 °F 53% 29.98 in 10.0 mi South 4.6 mph - N/A   Partly Cloudy
4:52 PM 87.1 °F 91.3 °F 69.1 °F 55% 29.98 in 10.0 mi SSE 6.9 mph - N/A   Mostly Cloudy
5:52 PM 86.0 °F 90.7 °F 70.0 °F 59% 29.96 in 10.0 mi South 5.8 mph - N/A   Clear
6:52 PM 84.9 °F 90.1 °F 71.1 °F 63% 29.96 in 10.0 mi South 3.5 mph - N/A   Clear
7:52 PM 80.1 °F 84.5 °F 73.9 °F 81% 29.96 in 10.0 mi Calm Calm - N/A   Clear
8:52 PM 78.1 °F - 73.9 °F 87% 29.98 in 10.0 mi SSW 4.6 mph - N/A   Partly Cloudy
9:52 PM 79.0 °F - 73.0 °F 82% 29.98 in 10.0 mi South 9.2 mph - N/A   Partly Cloudy
10:44 PM 75.9 °F - 69.1 °F 79% 30.00 in 10.0 mi Calm Calm - 0.00 in Rain Light Rain
10:52 PM 75.0 °F - 69.1 °F 82% 29.99 in 10.0 mi NNW 5.8 mph - 0.01 in Rain Light Rain
11:52 PM 72.0 °F - 70.0 °F 93% 29.96 in 10.0 mi Calm Calm - 0.00 in   Partly Cloudy